SB KEPS @ AMSAT $ORB11230.O Orbital Elements 11230.OSCAR
HR AMSAT ORBITAL ELEMENTS FOR OSCAR SATELLITES FROM WA5QGD FORT WORTH,TX August 18, 2011 Send Subscribe/unsubscribe to KEPS at http://www.amsat.org/mailman/listinfo/keps BID: ORB11230.O TO ALL RADIO AMATEURS BT
Satellite: AO-07 Catalog number: 07530 Epoch time: 11229.60671153 Element set: 0158 Inclination: 101.3948 deg RA of node: 233.7282 deg Eccentricity: 0.0011984 Arg of perigee: 157.8563 deg Mean anomaly: 202.3028 deg Mean motion: 12.53583558 rev/day Decay rate: -2.7e-07 rev/day^2 Epoch rev: 68188 Checksum: 305
Satellite: FO-29 Catalog number: 24278 Epoch time: 11230.76704023 Element set: 641 Inclination: 098.5565 deg RA of node: 006.4829 deg Eccentricity: 0.0351360 Arg of perigee: 095.0638 deg Mean anomaly: 269.0703 deg Mean motion: 13.52964253 rev/day Decay rate: -3.0e-07 rev/day^2 Epoch rev: 74092 Checksum: 301
Satellite: SO-33 Catalog number: 25509 Epoch time: 11229.45695043 Element set: 0035 Inclination: 031.4316 deg RA of node: 257.7645 deg Eccentricity: 0.0353174 Arg of perigee: 057.4326 deg Mean anomaly: 305.9904 deg Mean motion: 14.28437902 rev/day Decay rate: 1.17e-06 rev/day^2 Epoch rev: 66904 Checksum: 304
Satellite: RS-22 Catalog number: 27939 Epoch time: 11230.77713354 Element set: 549 Inclination: 097.8398 deg RA of node: 081.7634 deg Eccentricity: 0.0014085 Arg of perigee: 142.1518 deg Mean anomaly: 218.0681 deg Mean motion: 14.63625585 rev/day Decay rate: 2.01e-06 rev/day^2 Epoch rev: 42149 Checksum: 313
Satellite: VO-52 Catalog number: 28650 Epoch time: 11230.54412709 Element set: 875 Inclination: 097.6364 deg RA of node: 270.8718 deg Eccentricity: 0.0026101 Arg of perigee: 319.6668 deg Mean anomaly: 040.2642 deg Mean motion: 14.82143091 rev/day Decay rate: 4.75e-06 rev/day^2 Epoch rev: 33998 Checksum: 313
Satellite: SO-67 Catalog number: 35870 Epoch time: 11230.19425918 Element set: 134 Inclination: 097.2757 deg RA of node: 271.4789 deg Eccentricity: 0.0002981 Arg of perigee: 132.9870 deg Mean anomaly: 313.2917 deg Mean motion: 15.20969297 rev/day Decay rate: 1.275e-05 rev/day^2 Epoch rev: 10636 Checksum: 331
Satellite: HO-68 Catalog number: 36122 Epoch time: 11230.71714450 Element set: 660 Inclination: 100.4103 deg RA of node: 290.5674 deg Eccentricity: 0.0007796 Arg of perigee: 083.1764 deg Mean anomaly: 277.0234 deg Mean motion: 13.16287679 rev/day Decay rate: -4.4e-07 rev/day^2 Epoch rev: 8046 Checksum: 289
/EX SB KEPS @ AMSAT $ORB11230.D Orbital Elements 11230.MICROS
HR AMSAT ORBITAL ELEMENTS FOR THE MICROSATS FROM WA5QGD FORT WORTH,TX August 18, 2011 Send Subscribe/unsubscribe to KEPS at http://www.amsat.org/mailman/listinfo/keps BID: ORB11230.D TO ALL RADIO AMATEURS BT
Satellite: UO-11 Catalog number: 14781 Epoch time: 11229.93324011 Element set: 0631 Inclination: 098.0010 deg RA of node: 286.4334 deg Eccentricity: 0.0008057 Arg of perigee: 304.4546 deg Mean anomaly: 055.5903 deg Mean motion: 14.80014272 rev/day Decay rate: 2.36e-06 rev/day^2 Epoch rev: 47492 Checksum: 268
Satellite: AO-16 Catalog number: 20439 Epoch time: 11229.86231710 Element set: 0270 Inclination: 098.3889 deg RA of node: 177.4324 deg Eccentricity: 0.0011033 Arg of perigee: 346.2730 deg Mean anomaly: 013.8150 deg Mean motion: 14.31933485 rev/day Decay rate: 2.0e-07 rev/day^2 Epoch rev: 12644 Checksum: 272
Satellite: LO-19 Catalog number: 20442 Epoch time: 11230.84039069 Element set: 176 Inclination: 098.3521 deg RA of node: 182.4901 deg Eccentricity: 0.0011584 Arg of perigee: 335.6949 deg Mean anomaly: 024.3690 deg Mean motion: 14.32157652 rev/day Decay rate: -7.1e-07 rev/day^2 Epoch rev: 12676 Checksum: 295
Satellite: AO-27 Catalog number: 22825 Epoch time: 11230.73182255 Element set: 891 Inclination: 098.5351 deg RA of node: 173.9078 deg Eccentricity: 0.0009331 Arg of perigee: 090.2312 deg Mean anomaly: 269.9933 deg Mean motion: 14.29358205 rev/day Decay rate: -3.2e-07 rev/day^2 Epoch rev: 93312 Checksum: 300
Satellite: IO-26 Catalog number: 22826 Epoch time: 11229.87992337 Element set: 0663 Inclination: 098.5278 deg RA of node: 173.5265 deg Eccentricity: 0.0010128 Arg of perigee: 087.0525 deg Mean anomaly: 273.1816 deg Mean motion: 14.29621789 rev/day Decay rate: 4.1e-07 rev/day^2 Epoch rev: 93312 Checksum: 324
Satellite: GO-32 Catalog number: 25397 Epoch time: 11229.70908106 Element set: 0558 Inclination: 098.3287 deg RA of node: 218.9943 deg Eccentricity: 0.0002324 Arg of perigee: 093.5499 deg Mean anomaly: 266.5937 deg Mean motion: 14.23216168 rev/day Decay rate: 8.9e-07 rev/day^2 Epoch rev: 68071 Checksum: 340
Satellite: NO-44 Catalog number: 26931 Epoch time: 11229.88322632 Element set: 0829 Inclination: 067.0514 deg RA of node: 184.5503 deg Eccentricity: 0.0005762 Arg of perigee: 254.1281 deg Mean anomaly: 105.9200 deg Mean motion: 14.29673826 rev/day Decay rate: 1.36e-06 rev/day^2 Epoch rev: 51574 Checksum: 296
Satellite: SO-50 Catalog number: 27607 Epoch time: 11230.23854360 Element set: 543 Inclination: 064.5589 deg RA of node: 139.1099 deg Eccentricity: 0.0077705 Arg of perigee: 308.0158 deg Mean anomaly: 051.3947 deg Mean motion: 14.71792158 rev/day Decay rate: 1.41e-06 rev/day^2 Epoch rev: 46522 Checksum: 306
Satellite: CO-55 Catalog number: 27844 Epoch time: 11229.58429705 Element set: 0179 Inclination: 098.7066 deg RA of node: 237.3960 deg Eccentricity: 0.0010457 Arg of perigee: 025.6486 deg Mean anomaly: 334.5209 deg Mean motion: 14.20833486 rev/day Decay rate: 9.1e-07 rev/day^2 Epoch rev: 42163 Checksum: 323
Satellite: CO-57 Catalog number: 27848 Epoch time: 11229.53728220 Element set: 0128 Inclination: 098.7150 deg RA of node: 236.5606 deg Eccentricity: 0.0010401 Arg of perigee: 031.5773 deg Mean anomaly: 328.6021 deg Mean motion: 14.20610697 rev/day Decay rate: 8.7e-07 rev/day^2 Epoch rev: 42157 Checksum: 289
Satellite: AO-51 Catalog number: 28375 Epoch time: 11230.47502775 Element set: 48 Inclination: 098.1037 deg RA of node: 205.6637 deg Eccentricity: 0.0082802 Arg of perigee: 241.5762 deg Mean anomaly: 117.7070 deg Mean motion: 14.40773514 rev/day Decay rate: 4.7e-07 rev/day^2 Epoch rev: 37503 Checksum: 290
Satellite: CP3 Catalog number: 31129 Epoch time: 11229.66526802 Element set: 0947 Inclination: 097.8962 deg RA of node: 250.3222 deg Eccentricity: 0.0100656 Arg of perigee: 351.0308 deg Mean anomaly: 008.9050 deg Mean motion: 14.52538518 rev/day Decay rate: 1.95e-06 rev/day^2 Epoch rev: 22976 Checksum: 298
Satellite: CO-65 Catalog number: 32785 Epoch time: 11229.65221563 Element set: 0072 Inclination: 097.8435 deg RA of node: 292.3555 deg Eccentricity: 0.0014625 Arg of perigee: 340.2949 deg Mean anomaly: 019.7694 deg Mean motion: 14.82077217 rev/day Decay rate: 2.2e-07 rev/day^2 Epoch rev: 17864 Checksum: 322
Satellite: PRISM Catalog number: 33493 Epoch time: 11230.75768352 Element set: 877 Inclination: 098.1319 deg RA of node: 000.3111 deg Eccentricity: 0.0019252 Arg of perigee: 195.4559 deg Mean anomaly: 164.6076 deg Mean motion: 14.81842312 rev/day Decay rate: 8.01e-06 rev/day^2 Epoch rev: 13878 Checksum: 297
Satellite: SOHLA-1 Catalog number: 33496 Epoch time: 11229.93942442 Element set: 0502 Inclination: 098.0849 deg RA of node: 339.1612 deg Eccentricity: 0.0005796 Arg of perigee: 293.6257 deg Mean anomaly: 066.4340 deg Mean motion: 14.69643972 rev/day Decay rate: 1.16e-06 rev/day^2 Epoch rev: 13755 Checksum: 322
Satellite: TISAT-1 Catalog number: 36799 Epoch time: 11230.78365942 Element set: 151 Inclination: 098.0973 deg RA of node: 299.6442 deg Eccentricity: 0.0016629 Arg of perigee: 076.1294 deg Mean anomaly: 284.1755 deg Mean motion: 14.80661705 rev/day Decay rate: 5.32e-06 rev/day^2 Epoch rev: 5957 Checksum: 334
Satellite: STUDSAT Catalog number: 36801 Epoch time: 11229.83929961 Element set: 227 Inclination: 098.1045 deg RA of node: 298.5993 deg Eccentricity: 0.0014722 Arg of perigee: 068.0099 deg Mean anomaly: 292.2675 deg Mean motion: 14.80877824 rev/day Decay rate: 1.380e-05 rev/day^2 Epoch rev: 5942 Checksum: 333
Satellite: OOREOS Catalog number: 37224 Epoch time: 11153.29456974 Element set: 0179 Inclination: 071.9726 deg RA of node: 071.8135 deg Eccentricity: 0.0020315 Arg of perigee: 307.7637 deg Mean anomaly: 052.1684 deg Mean motion: 14.77036357 rev/day Decay rate: 4.92e-06 rev/day^2 Epoch rev: 02867 Checksum: 309
Satellite: FO-69 Catalog number: 37227 Epoch time: 11230.45213982 Element set: 0110 Inclination: 071.9685 deg RA of node: 261.9722 deg Eccentricity: 0.0016980 Arg of perigee: 171.3961 deg Mean anomaly: 188.7475 deg Mean motion: 14.76625575 rev/day Decay rate: 1.36e-06 rev/day^2 Epoch rev: 01851 Checksum: 319
Satellite: NANOSALD Catalog number: 37361 Epoch time: 11230.28098225 Element set: 0331 Inclination: 071.9704 deg RA of node: 249.7190 deg Eccentricity: 0.0027311 Arg of perigee: 266.3350 deg Mean anomaly: 093.3370 deg Mean motion: 15.20171657 rev/day Decay rate: 7.9687e-04 rev/day^2 Epoch rev: 03149 Checksum: 290
Satellite: FO-70 Catalog number: 37380 Epoch time: 11230.47569632 Element set: 0245 Inclination: 071.9723 deg RA of node: 262.1051 deg Eccentricity: 0.0017478 Arg of perigee: 168.1486 deg Mean anomaly: 192.0090 deg Mean motion: 14.76390289 rev/day Decay rate: 1.00e-06 rev/day^2 Epoch rev: 04005 Checksum: 285
/EX SB KEPS @ AMSAT $ORB11230.W Orbital Elements 11230.WEATHER
HR AMSAT ORBITAL ELEMENTS FOR WEATHER SATELLITES FROM WA5QGD FORT WORTH,TX August 18, 2011 Send Subscribe/unsubscribe to KEPS at http://www.amsat.org/mailman/listinfo/keps BID: ORB11230.W TO ALL RADIO AMATEURS BT
Satellite: NOAA-10 Catalog number: 16969 Epoch time: 11229.96262727 Element set: 0607 Inclination: 098.6151 deg RA of node: 258.9010 deg Eccentricity: 0.0013025 Arg of perigee: 047.2666 deg Mean anomaly: 312.9610 deg Mean motion: 14.27472925 rev/day Decay rate: 5.3e-07 rev/day^2 Epoch rev: 29646 Checksum: 309
